Weather Roundup
Issued by NWS Chicago, IL

Home | Current Version | Previous Version | Graphics & Text | Print | Product List | Glossary On
Versions: 1 2 3 4 5 6 7 8 9 10 11 12 13 14 15 16 17 18 19 20 21 22 23 24 25 26 27 28 29 30 31 32 33 34 35 36 37 38 39 40 41 42 43 44 45 46 47 48 49 50
000
NZUS59 KLOT 290610
HRRLOT

CHICAGO AREA WEATHER ROUNDUP
NATIONAL WEATHER SERVICE CHICAGO/ROMEOVILLE IL
100 AM CDT FRI AUG 29 2014

NOTE: "FAIR" INDICATES FEW OR NO CLOUDS BELOW 12,000 FEET WITH NO
SIGNIFICANT WEATHER AND/OR OBSTRUCTIONS TO VISIBILITY.

* THESE STATIONS ARE NOT UNDER NWS QUALITY CONTROL. THEY ALSO MAY NOT
  REPORT WEATHER SUCH AS PRECIPITATION OR FOG.

ILZ005-006-012>014-019>023-290700-
NORTHEAST ILLINOIS

CITY           SKY/WX    TMP DP  RH WIND       PRES   REMARKS
OHARE          CLOUDY    70  64  81 SE7       30.01F
6HR MIN TEMP:  69; 6HR MAX TEMP:  71; 6HR PCP: TRACE;

MIDWAY         CLOUDY    73  67  81 SE10      30.01F
6HR MIN TEMP:  72; 6HR MAX TEMP:  74; 6HR PCP:  0.02;

AURORA           N/A     69  65  86 SE5       30.01F FOG
6HR MIN TEMP:  67; 6HR MAX TEMP:  70; 6HR PCP:  0.15;

LANSING*         N/A     70  65  84 SE6       30.02F
JOLIET*          N/A     69  66  89 SE3       30.01F
WAUKEGAN         N/A     70  67  90 SE7       30.01F
6HR MIN TEMP:  67; 6HR MAX TEMP:  70; 6HR PCP: TRACE;

DUPAGE AIRPORT   N/A     69  65  86 SE6       30.01F
6HR MIN TEMP:  67; 6HR MAX TEMP:  70; 6HR PCP:  0.09;

WHEELING         N/A     71  65  81 SE3       30.03F
6HR MIN TEMP:  70; 6HR MAX TEMP:  71; 6HR PCP: TRACE;

KANKAKEE*      DRIZZLE   70  68  93 SE7       30.02F
MORRIS*          N/A     69  69 100 CALM      30.00F FOG
LEWIS AIRPORT* MOCLDY    69  67  94 SE7       30.01F
NORTHERLY IS     N/A     72  64  76 S12         N/A
$$

WIZ051-052-058>065-066-070>072-290700-
SOUTHEAST WISCONSIN

CITY           SKY/WX    TMP DP  RH WIND       PRES   REMARKS
MILWAUKEE      MOCLDY    68  61  78 SE10      30.02F
6HR MIN TEMP:  66; 6HR MAX TEMP:  68;

KENOSHA*         N/A     69  65  86 E8        30.02F
RACINE*          N/A     70  63  78 SE6       30.04F
BURLINGTON       N/A     61  59  94 CALM      30.01F
WAUKESHA         N/A     63  59  88 E7        30.03F
WEST BEND      CLOUDY    63  57  82 E3        30.03F
$$

INZ001>003-010>013-019-020-290700-
NORTHWEST INDIANA

CITY           SKY/WX    TMP DP  RH WIND       PRES   REMARKS
GARY*            N/A     71  67  87 SE5       30.03F
6HR MIN TEMP:  71; 6HR MAX TEMP:  73; 6HR PCP:  0.01;

MICHIGAN CITY* NOT AVBL
RENSSELAER*    NOT AVBL
VALPARAISO       N/A     69  63  81 SE8       30.05F
$$

LMZ740>746-290700-
SOUTHERN LAKE MICHIGAN

STATION/POSITION TIME  SKY/WX   TEMP WIND        PRES    VSBY
                                AIR  DIR/SP/G
                 (UTC)          (F)  (DEG/KT/KT) (MB)    (MI)
HARRISON CRIB    0600            73  160/ 18/ 23   N/A
BURNHAM HARBOR   0600            72  170/  8/ 15   N/A
CALUMET HARBOR   0600            72  150/  9/ 13 1015.3F
BURNS HARBOR     NOT AVBL
MICHIGAN CITY    0600            71  120/  8/ 11   N/A
$$

ABBREVIATIONS USED IN REMARKS
   TC - TEMPERATURE IN CELSIUS
  WCI - WIND CHILL INDEX
   HX - HEAT INDEX
  VSB - VISIBILITY
$$


USA.gov is the U.S. government's official web portal to all federal, state and local government web resources and services.